QPF
0.00 0.00 0.00 0.00 0.00 0.01 0.01 0.01 0.01 0.01 0.00 0.00 0.01 0.01 0.01 0.01 0.01 0.00 0.00 0.00 0.01 0.01 0.01 0.01 0.01 0.01 0.01 0.01 0.01 0.00 0.00 0.00 0.00 0.00 0.00 0.00 0.00 0.00 0.00 0.00 0.00 0.00 0.00
0.00 0.00 0.00 0.00 0.00 0.01 0.01 0.01 0.01 0.01 0.00 0.00 0.00 0.01 0.01 0.01 0.01 0.00 0.00 0.00 0.01 0.01 0.01 0.02 0.01 0.01 0.01 0.00 0.00 0.00 0.00 0.00 0.00 0.00 0.00 0.00 0.00 0.00 0.00 0.00 0.00 0.00 0.00
0.00 0.00 0.00 0.00 0.01 0.01 0.01 0.01 0.01 0.01 0.00 0.00 0.00 0.01 0.01 0.01 0.01 0.01 0.00 0.00 0.00 0.01 0.01 0.02 0.01 0.00 0.00 0.00 0.00 0.00 0.00 0.00 0.00 0.00 0.00 0.00 0.00 0.00 0.00 0.00 0.00 0.00 0.00
0.00 0.00 0.00 0.00 0.01 0.01 0.01 0.01 0.01 0.01 0.01 0.00 0.00 0.00 0.01 0.01 0.01 0.01 0.01 0.01 0.00 0.00 0.01 0.01 0.00 0.00 0.00 0.00 0.00 0.00 0.00 0.00 0.00 0.00 0.00 0.00 0.00 0.00 0.00 0.00 0.00 0.00 0.00
0.00 0.00 0.00 0.00 0.01 0.01 0.01 0.01 0.01 0.01 0.00 0.00 0.00 0.00 0.01 0.01 0.00 0.01 0.01 0.00 0.00 0.00 0.00 0.00 0.00 0.00 0.00 0.00 0.00 0.00 0.00 0.00 0.00 0.00 0.00 0.00 0.00 0.00 0.00 0.00 0.00 0.00 0.01
0.00 0.00 0.00 0.00 0.01 0.01 0.01 0.01 0.01 0.01 0.00 0.01 0.01 0.01 0.01 0.00 0.00 0.00 0.00 0.00 0.00 0.00 0.00 0.00 0.00 0.00 0.00 0.00 0.00 0.00 0.00 0.00 0.00 0.00 0.00 0.00 0.00 0.01 0.00 0.00 0.00 0.00 0.01
0.00 0.00 0.00 0.01 0.01 0.01 0.01 0.01 0.01 0.00 0.00 0.00 0.00 0.01 0.00 0.00 0.00 0.00 0.00 0.00 0.00 0.00 0.00 0.00 0.00 0.00 0.00 0.00 0.00 0.00 0.00 0.00 0.00 0.00 0.00 0.00 0.00 0.01 0.01 0.01 0.01 0.01 0.01
0.00 0.00 0.01 0.01 0.01 0.01 0.01 0.01 0.01 0.00 0.00 0.00 0.00 0.01 0.00 0.00 0.00 0.00 0.00 0.00 0.00 0.00 0.00 0.00 0.00 0.00 0.00 0.00 0.00 0.00 0.00 0.00 0.00 0.00 0.00 0.00 0.00 0.00 0.01 0.01 0.01 0.01 0.01
0.00 0.00 0.01 0.01 0.01 0.01 0.01 0.01 0.01 0.00 0.00 0.00 0.01 0.00 0.00 0.00 0.00 0.00 0.00 0.00 0.00 0.00 0.00 0.00 0.00 0.00 0.00 0.00 0.00 0.00 0.00 0.00 0.00 0.00 0.00 0.00 0.00 0.00 0.00 0.01 0.01 0.01 0.01
0.00 0.00 0.01 0.01 0.01 0.01 0.01 0.01 0.01 0.01 0.01 0.01 0.00 0.00 0.00 0.00 0.00 0.00 0.00 0.00 0.00 0.00 0.00 0.00 0.00 0.00 0.00 0.00 0.00 0.00 0.00 0.00 0.00 0.00 0.00 0.00 0.00 0.01 0.01 0.01 0.01 0.01 0.01
0.00 0.00 0.01 0.01 0.01 0.01 0.01 0.01 0.01 0.01 0.01 0.01 0.00 0.00 0.00 0.00 0.00 0.00 0.00 0.00 0.00 0.00 0.00 0.00 0.00 0.00 0.00 0.00 0.00 0.00 0.00 0.00 0.00 0.00 0.00 0.00 0.00 0.00 0.01 0.01 0.01 0.01 0.00
0.00 0.00 0.00 0.01 0.01 0.01 0.01 0.01 0.01 0.01 0.01 0.01 0.00 0.00 0.00 0.00 0.00 0.00 0.00 0.00 0.00 0.00 0.00 0.00 0.00 0.00 0.00 0.00 0.00 0.00 0.00 0.00 0.00 0.00 0.00 0.00 0.00 0.00 0.01 0.01 0.01 0.00 0.00
0.00 0.00 0.00 0.01 0.01 0.01 0.00 0.01 0.01 0.01 0.01 0.00 0.00 0.00 0.00 0.00 0.00 0.00 0.00 0.00 0.00 0.00 0.00 0.00 0.00 0.00 0.00 0.00 0.00 0.00 0.00 0.00 0.00 0.00 0.00 0.00 0.00 0.00 0.00 0.00 0.00 0.00 0.00
0.00 0.00 0.00 0.00 0.01 0.01 0.00 0.00 0.01 0.01 0.01 0.00 0.00 0.00 0.00 0.00 0.00 0.00 0.00 0.00 0.00 0.00 0.00 0.00 0.00 0.00 0.00 0.00 0.00 0.00 0.00 0.00 0.00 0.00 0.00 0.00 0.00 0.00 0.00 0.00 0.00 0.00 0.00
0.00 0.00 0.00 0.00 0.01 0.01 0.01 0.01 0.01 0.00 0.00 0.00 0.00 0.00 0.00 0.00 0.00 0.00 0.00 0.00 0.00 0.00 0.00 0.00 0.00 0.00 0.00 0.00 0.00 0.00 0.00 0.00 0.00 0.00 0.00 0.00 0.00 0.00 0.00 0.00 0.00 0.00 0.00
0.00 0.00 0.00 0.00 0.01 0.01 0.01 0.00 0.00 0.00 0.00 0.00 0.00 0.00 0.00 0.00 0.00 0.00 0.00 0.00 0.00 0.00 0.00 0.00 0.00 0.00 0.00 0.00 0.00 0.00 0.00 0.00 0.00 0.00 0.00 0.00 0.00 0.00 0.00 0.00 0.00 0.00 0.00
0.00 0.00 0.00 0.00 0.00 0.01 0.00 0.00 0.00 0.00 0.00 0.00 0.00 0.00 0.00 0.00 0.00 0.00 0.00 0.00 0.00 0.00 0.00 0.00 0.00 0.00 0.00 0.00 0.00 0.00 0.00 0.00 0.00 0.00 0.00 0.00 0.00 0.00 0.00 0.00 0.00 0.00 0.00
0.00 0.00 0.00 0.00 0.00 0.00 0.00 0.00 0.00 0.00 0.00 0.00 0.00 0.00 0.00 0.00 0.00 0.00 0.00 0.00 0.00 0.00 0.00 0.00 0.00 0.00 0.00 0.00 0.00 0.00 0.00 0.00 0.00 0.00 0.00 0.00 0.00 0.00 0.00 0.00 0.00 0.00 0.00
0.00 0.00 0.00 0.00 0.00 0.00 0.00 0.00 0.00 0.00 0.00 0.00 0.00 0.00 0.00 0.00 0.00 0.00 0.00 0.00 0.00 0.00 0.00 0.00 0.00 0.00 0.00 0.00 0.00 0.00 0.00 0.00 0.00 0.00 0.00 0.00 0.00 0.00 0.00 0.00 0.00 0.00 0.00
0.00 0.00 0.00 0.00 0.00 0.00 0.00 0.00 0.00 0.00 0.00 0.00 0.00 0.00 0.00 0.00 0.00 0.00 0.00 0.00 0.00 0.00 0.00 0.00 0.00 0.00 0.00 0.00 0.00 0.00 0.00 0.00 0.00 0.00 0.00 0.00 0.00 0.00 0.00 0.00 0.00 0.00 0.00
0.00 0.00 0.00 0.00 0.00 0.00 0.00 0.00 0.00 0.00 0.00 0.00 0.00 0.00 0.00 0.00 0.00 0.00 0.00 0.00 0.00 0.00 0.00 0.00 0.00 0.00 0.00 0.00 0.00 0.00 0.00 0.00 0.00 0.00 0.00 0.00 0.00 0.00 0.00 0.00 0.00 0.00 0.00
0.00 0.00 0.00 0.00 0.00 0.00 0.00 0.00 0.00 0.00 0.00 0.00 0.00 0.00 0.00 0.00 0.00 0.00 0.00 0.00 0.00 0.01 0.00 0.00 0.00 0.00 0.00 0.00 0.00 0.00 0.00 0.00 0.00 0.00 0.00 0.00 0.00 0.00 0.00 0.00 0.00 0.00 0.00
0.00 0.00 0.00 0.00 0.00 0.00 0.00 0.00 0.00 0.00 0.00 0.00 0.00 0.00 0.00 0.00 0.00 0.00 0.00 0.00 0.00 0.00 0.01 0.01 0.00 0.00 0.00 0.00 0.00 0.00 0.00 0.00 0.00 0.00 0.00 0.00 0.00 0.00 0.00 0.00 0.00 0.00 0.00
0.00 0.00 0.00 0.00 0.00 0.00 0.00 0.00 0.00 0.00 0.00 0.00 0.00 0.00 0.00 0.00 0.00 0.00 0.00 0.00 0.00 0.00 0.00 0.00 0.00 0.00 0.00 0.00 0.00 0.00 0.00 0.00 0.00 0.00 0.00 0.00 0.00 0.00 0.00 0.00 0.00 0.00 0.00
0.00 0.00 0.00 0.00 0.00 0.00 0.00 0.00 0.00 0.00 0.00 0.00 0.00 0.00 0.00 0.00 0.00 0.00 0.00 0.00 0.00 0.00 0.00 0.00 0.00 0.00 0.00 0.01 0.00 0.00 0.00 0.00 0.00 0.00 0.00 0.00 0.00 0.00 0.00 0.00 0.00 0.00 0.00
0.00 0.00 0.00 0.00 0.00 0.00 0.00 0.00 0.00 0.00 0.00 0.00 0.00 0.00 0.00 0.00 0.00 0.00 0.00 0.00 0.00 0.00 0.00 0.00 0.00 0.00 0.00 0.00 0.01 0.01 0.01 0.01 0.01 0.01 0.01 0.00 0.00 0.00 0.00 0.00 0.00 0.00 0.00
MSLP
1010.64 1010.93 1011.20 1011.49 1011.83 1012.21 1012.62 1013.04 1013.45 1013.83 1014.18 1014.51 1014.81 1015.10 1015.39 1015.65 1015.90 1016.12 1016.29 1016.42 1016.51 1016.59 1016.65 1016.73 1016.82 1016.93 1017.04 1017.14 1017.21 1017.26 1017.27 1017.26 1017.23 1017.21 1017.19 1017.17 1017.17 1017.16 1017.13 1017.06 1016.97 1016.84 1016.69
1010.25 1010.61 1010.98 1011.38 1011.82 1012.28 1012.74 1013.18 1013.59 1013.96 1014.29 1014.61 1014.93 1015.26 1015.59 1015.92 1016.21 1016.46 1016.66 1016.80 1016.90 1016.98 1017.06 1017.15 1017.26 1017.38 1017.49 1017.59 1017.64 1017.66 1017.63 1017.58 1017.53 1017.48 1017.46 1017.45 1017.46 1017.47 1017.45 1017.39 1017.29 1017.16 1017.00
1009.87 1010.30 1010.76 1011.27 1011.81 1012.35 1012.87 1013.34 1013.75 1014.10 1014.43 1014.75 1015.08 1015.44 1015.80 1016.17 1016.50 1016.77 1016.99 1017.14 1017.24 1017.32 1017.41 1017.51 1017.64 1017.77 1017.89 1017.98 1018.02 1018.01 1017.95 1017.87 1017.79 1017.73 1017.70 1017.71 1017.73 1017.74 1017.73 1017.68 1017.58 1017.44 1017.29
1009.54 1010.04 1010.59 1011.20 1011.84 1012.46 1013.03 1013.52 1013.93 1014.28 1014.60 1014.91 1015.25 1015.62 1016.01 1016.39 1016.75 1017.04 1017.26 1017.41 1017.52 1017.61 1017.70 1017.82 1017.96 1018.10 1018.24 1018.33 1018.36 1018.33 1018.25 1018.15 1018.06 1017.98 1017.95 1017.95 1017.97 1017.99 1017.98 1017.93 1017.84 1017.70 1017.55
1009.32 1009.87 1010.50 1011.20 1011.92 1012.60 1013.22 1013.73 1014.14 1014.48 1014.78 1015.09 1015.42 1015.80 1016.20 1016.60 1016.96 1017.26 1017.49 1017.64 1017.75 1017.85 1017.95 1018.08 1018.24 1018.40 1018.54 1018.63 1018.66 1018.63 1018.55 1018.44 1018.33 1018.25 1018.21 1018.21 1018.22 1018.23 1018.21 1018.16 1018.06 1017.93 1017.79
1009.21 1009.81 1010.51 1011.27 1012.05 1012.78 1013.42 1013.95 1014.36 1014.69 1014.98 1015.27 1015.61 1015.98 1016.39 1016.79 1017.16 1017.46 1017.69 1017.85 1017.97 1018.07 1018.19 1018.33 1018.50 1018.67 1018.81 1018.91 1018.95 1018.91 1018.83 1018.73 1018.62 1018.55 1018.50 1018.49 1018.48 1018.47 1018.44 1018.37 1018.26 1018.13 1018.00
1009.22 1009.86 1010.60 1011.40 1012.22 1012.98 1013.63 1014.16 1014.56 1014.88 1015.16 1015.45 1015.78 1016.16 1016.57 1016.98 1017.36 1017.67 1017.91 1018.08 1018.20 1018.32 1018.44 1018.59 1018.76 1018.93 1019.07 1019.17 1019.20 1019.17 1019.10 1019.01 1018.92 1018.85 1018.80 1018.78 1018.75 1018.72 1018.65 1018.56 1018.44 1018.31 1018.19
1009.31 1009.97 1010.73 1011.56 1012.39 1013.15 1013.80 1014.32 1014.71 1015.03 1015.31 1015.61 1015.95 1016.34 1016.76 1017.18 1017.57 1017.89 1018.14 1018.33 1018.47 1018.59 1018.72 1018.86 1019.02 1019.18 1019.30 1019.38 1019.41 1019.39 1019.33 1019.25 1019.18 1019.13 1019.10 1019.07 1019.03 1018.96 1018.87 1018.74 1018.61 1018.47 1018.36
1009.42 1010.09 1010.87 1011.70 1012.51 1013.26 1013.89 1014.40 1014.80 1015.12 1015.42 1015.74 1016.10 1016.51 1016.95 1017.39 1017.79 1018.13 1018.39 1018.59 1018.74 1018.87 1019.00 1019.13 1019.27 1019.39 1019.49 1019.55 1019.56 1019.53 1019.49 1019.44 1019.40 1019.38 1019.36 1019.34 1019.29 1019.21 1019.09 1018.94 1018.78 1018.63 1018.52
1009.49 1010.18 1010.95 1011.76 1012.55 1013.27 1013.88 1014.38 1014.78 1015.13 1015.46 1015.82 1016.21 1016.65 1017.12 1017.58 1017.99 1018.35 1018.63 1018.84 1019.00 1019.14 1019.25 1019.37 1019.47 1019.56 1019.61 1019.64 1019.63 1019.61 1019.57 1019.55 1019.55 1019.57 1019.59 1019.59 1019.55 1019.46 1019.33 1019.15 1018.97 1018.81 1018.69
1009.47 1010.16 1010.93 1011.71 1012.46 1013.15 1013.74 1014.24 1014.66 1015.04 1015.42 1015.82 1016.27 1016.75 1017.24 1017.71 1018.15 1018.51 1018.80 1019.03 1019.20 1019.33 1019.44 1019.53 1019.60 1019.64 1019.66 1019.66 1019.63 1019.61 1019.59 1019.60 1019.64 1019.70 1019.77 1019.80 1019.79 1019.71 1019.58 1019.40 1019.20 1019.02 1018.89
1009.31 1010.02 1010.77 1011.52 1012.24 1012.89 1013.47 1013.98 1014.43 1014.86 1015.29 1015.75 1016.24 1016.76 1017.27 1017.77 1018.21 1018.58 1018.87 1019.10 1019.28 1019.41 1019.51 1019.59 1019.64 1019.66 1019.65 1019.62 1019.59 1019.56 1019.57 1019.61 1019.69 1019.80 1019.91 1019.99 1020.01 1019.96 1019.84 1019.67 1019.48 1019.29 1019.14
1009.02 1009.73 1010.46 1011.19 1011.88 1012.51 1013.08 1013.61 1014.09 1014.57 1015.07 1015.58 1016.12 1016.67 1017.21 1017.71 1018.15 1018.52 1018.82 1019.05 1019.24 1019.38 1019.48 1019.56 1019.60 1019.61 1019.60 1019.56 1019.53 1019.52 1019.54 1019.61 1019.73 1019.88 1020.03 1020.15 1020.21 1020.21 1020.12 1019.97 1019.79 1019.61 1019.45
1008.57 1009.29 1010.01 1010.72 1011.39 1012.02 1012.60 1013.15 1013.68 1014.21 1014.77 1015.33 1015.92 1016.49 1017.04 1017.54 1017.97 1018.34 1018.64 1018.88 1019.07 1019.23 1019.35 1019.45 1019.51 1019.54 1019.54 1019.53 1019.51 1019.52 1019.57 1019.66 1019.80 1019.97 1020.15 1020.30 1020.40 1020.43 1020.39 1020.28 1020.13 1019.96 1019.81
1008.00 1008.73 1009.45 1010.15 1010.82 1011.45 1012.05 1012.63 1013.22 1013.81 1014.41 1015.02 1015.63 1016.22 1016.77 1017.27 1017.70 1018.06 1018.37 1018.62 1018.83 1019.01 1019.17 1019.30 1019.40 1019.47 1019.51 1019.54 1019.56 1019.60 1019.67 1019.77 1019.92 1020.09 1020.28 1020.44 1020.57 1020.64 1020.64 1020.58 1020.47 1020.33 1020.19
1007.32 1008.06 1008.79 1009.51 1010.19 1010.85 1011.48 1012.11 1012.74 1013.38 1014.03 1014.67 1015.30 1015.90 1016.45 1016.94 1017.37 1017.73 1018.04 1018.31 1018.55 1018.77 1018.97 1019.15 1019.31 1019.44 1019.55 1019.63 1019.70 1019.77 1019.86 1019.97 1020.10 1020.26 1020.42 1020.57 1020.70 1020.79 1020.83 1020.82 1020.77 1020.68 1020.56
1006.57 1007.33 1008.09 1008.83 1009.55 1010.25 1010.93 1011.61 1012.29 1012.97 1013.65 1014.32 1014.96 1015.56 1016.10 1016.59 1017.02 1017.39 1017.72 1018.02 1018.29 1018.55 1018.80 1019.04 1019.26 1019.45 1019.62 1019.77 1019.90 1020.01 1020.11 1020.22 1020.33 1020.45 1020.57 1020.69 1020.80 1020.89 1020.95 1020.99 1020.99 1020.96 1020.89
1005.80 1006.57 1007.36 1008.15 1008.92 1009.68 1010.42 1011.16 1011.89 1012.61 1013.31 1013.98 1014.62 1015.22 1015.76 1016.25 1016.69 1017.08 1017.43 1017.76 1018.07 1018.37 1018.67 1018.96 1019.23 1019.49 1019.73 1019.93 1020.11 1020.26 1020.39 1020.49 1020.57 1020.64 1020.71 1020.78 1020.85 1020.93 1021.00 1021.07 1021.13 1021.15 1021.13
1005.02 1005.82 1006.65 1007.49 1008.33 1009.15 1009.96 1010.76 1011.53 1012.28 1012.99 1013.66 1014.29 1014.88 1015.42 1015.92 1016.38 1016.80 1017.18 1017.55 1017.90 1018.24 1018.57 1018.89 1019.21 1019.51 1019.80 1020.06 1020.29 1020.48 1020.63 1020.73 1020.79 1020.81 1020.82 1020.83 1020.86 1020.90 1020.97 1021.06 1021.16 1021.23 1021.27
1004.26 1005.09 1005.96 1006.86 1007.77 1008.66 1009.54 1010.40 1011.21 1011.97 1012.69 1013.35 1013.97 1014.54 1015.08 1015.59 1016.07 1016.52 1016.95 1017.36 1017.74 1018.11 1018.46 1018.81 1019.15 1019.48 1019.81 1020.11 1020.39 1020.62 1020.79 1020.90 1020.94 1020.94 1020.90 1020.86 1020.83 1020.84 1020.89 1020.98 1021.09 1021.21 1021.30
1003.53 1004.39 1005.30 1006.25 1007.23 1008.20 1009.14 1010.05 1010.89 1011.67 1012.38 1013.02 1013.62 1014.18 1014.71 1015.23 1015.74 1016.23 1016.70 1017.15 1017.57 1017.96 1018.33 1018.68 1019.02 1019.37 1019.71 1020.05 1020.36 1020.62 1020.83 1020.96 1021.02 1021.00 1020.93 1020.85 1020.77 1020.74 1020.76 1020.83 1020.96 1021.09 1021.22
1002.82 1003.70 1004.64 1005.65 1006.68 1007.71 1008.72 1009.67 1010.54 1011.32 1012.02 1012.65 1013.22 1013.76 1014.29 1014.81 1015.35 1015.88 1016.39 1016.88 1017.33 1017.74 1018.12 1018.47 1018.81 1019.15 1019.50 1019.85 1020.19 1020.49 1020.74 1020.91 1021.00 1020.99 1020.92 1020.81 1020.70 1020.63 1020.61 1020.65 1020.76 1020.90 1021.04
1002.12 1003.00 1003.96 1005.00 1006.08 1007.17 1008.22 1009.21 1010.11 1010.90 1011.59 1012.19 1012.74 1013.26 1013.77 1014.31 1014.86 1015.43 1015.98 1016.52 1017.00 1017.44 1017.82 1018.17 1018.50 1018.83 1019.18 1019.53 1019.90 1020.24 1020.53 1020.76 1020.88 1020.91 1020.86 1020.75 1020.62 1020.51 1020.45 1020.46 1020.53 1020.65 1020.79
1001.38 1002.26 1003.23 1004.29 1005.40 1006.53 1007.62 1008.65 1009.57 1010.38 1011.06 1011.65 1012.17 1012.66 1013.17 1013.70 1014.27 1014.87 1015.46 1016.04 1016.56 1017.02 1017.42 1017.78 1018.10 1018.42 1018.76 1019.13 1019.51 1019.88 1020.22 1020.50 1020.69 1020.77 1020.75 1020.66 1020.53 1020.40 1020.30 1020.26 1020.28 1020.36 1020.48
1000.59 1001.45 1002.42 1003.48 1004.61 1005.76 1006.89 1007.96 1008.91 1009.73 1010.42 1011.00 1011.51 1011.99 1012.49 1013.01 1013.59 1014.21 1014.84 1015.45 1016.01 1016.51 1016.94 1017.30 1017.63 1017.96 1018.29 1018.66 1019.05 1019.46 1019.84 1020.17 1020.42 1020.56 1020.59 1020.53 1020.41 1020.27 1020.13 1020.05 1020.02 1020.05 1020.13
999.73 1000.57 1001.52 1002.57 1003.70 1004.87 1006.03 1007.13 1008.12 1008.98 1009.69 1010.28 1010.79 1011.26 1011.74 1012.27 1012.84 1013.47 1014.12 1014.77 1015.37 1015.90 1016.37 1016.76 1017.11 1017.45 1017.79 1018.16 1018.56 1018.98 1019.40 1019.77 1020.08 1020.28 1020.36 1020.35 1020.25 1020.11 1019.96 1019.83 1019.75 1019.72 1019.75
Thickness
5768 5766 5762 5759 5757 5755 5754 5752 5750 5748 5746 5744 5742 5740 5739 5737 5735 5734 5732 5731 5730 5729 5728 5727 5725 5723 5722 5720 5718 5716 5715 5714 5712 5711 5709 5708 5707 5705 5704 5703 5701 5700 5699
5772 5765 5760 5757 5755 5753 5751 5749 5747 5744 5742 5740 5739 5737 5735 5733 5732 5730 5729 5728 5727 5725 5724 5722 5720 5719 5717 5715 5713 5711 5710 5709 5708 5706 5704 5702 5701 5699 5698 5696 5695 5694 5692
5769 5763 5758 5755 5753 5750 5748 5746 5743 5741 5739 5737 5735 5734 5732 5730 5728 5727 5725 5724 5723 5721 5720 5718 5716 5714 5712 5710 5708 5706 5705 5704 5703 5702 5700 5697 5695 5694 5692 5690 5689 5687 5686
5766 5760 5756 5752 5750 5747 5745 5743 5740 5738 5736 5734 5732 5730 5729 5727 5725 5724 5722 5720 5719 5717 5715 5713 5711 5709 5707 5705 5703 5701 5700 5699 5699 5697 5695 5692 5690 5688 5686 5684 5682 5681 5679
5762 5756 5752 5749 5747 5744 5742 5740 5737 5735 5733 5731 5729 5727 5725 5724 5722 5720 5718 5716 5714 5712 5710 5708 5706 5704 5702 5700 5698 5697 5695 5694 5693 5691 5689 5686 5683 5682 5680 5678 5676 5674 5673
5758 5753 5748 5746 5743 5741 5739 5737 5734 5732 5730 5728 5726 5724 5722 5720 5718 5716 5714 5712 5710 5708 5706 5704 5702 5700 5697 5695 5693 5692 5691 5689 5688 5686 5683 5680 5677 5676 5674 5672 5670 5668 5666
5754 5749 5744 5742 5740 5738 5736 5733 5731 5729 5727 5725 5723 5721 5719 5716 5714 5712 5710 5708 5706 5704 5702 5700 5698 5695 5693 5690 5688 5687 5686 5684 5683 5680 5677 5673 5671 5669 5667 5665 5663 5661 5659
5752 5746 5741 5739 5737 5735 5733 5730 5728 5726 5724 5722 5720 5718 5715 5713 5711 5708 5706 5704 5702 5700 5698 5696 5693 5691 5688 5686 5684 5682 5681 5679 5678 5675 5671 5667 5665 5663 5661 5659 5656 5654 5652
5749 5743 5738 5735 5733 5731 5729 5727 5725 5723 5721 5719 5717 5715 5712 5710 5707 5705 5702 5700 5698 5696 5694 5691 5689 5686 5684 5681 5679 5677 5676 5674 5672 5669 5665 5661 5659 5657 5654 5652 5649 5647 5645
5744 5740 5736 5733 5730 5728 5726 5724 5722 5720 5718 5716 5714 5711 5709 5706 5704 5701 5699 5696 5694 5692 5689 5687 5684 5682 5679 5677 5675 5673 5671 5669 5667 5663 5659 5655 5653 5650 5648 5645 5642 5640 5637
5739 5737 5734 5732 5729 5727 5724 5721 5719 5717 5715 5713 5710 5708 5706 5703 5701 5698 5695 5693 5690 5688 5685 5683 5680 5677 5675 5672 5670 5669 5667 5665 5662 5657 5653 5649 5646 5644 5641 5639 5636 5633 5630
5735 5735 5734 5732 5729 5726 5723 5720 5717 5715 5712 5710 5708 5706 5703 5701 5698 5695 5692 5689 5687 5684 5681 5679 5676 5674 5671 5669 5667 5664 5662 5660 5657 5652 5647 5643 5640 5638 5635 5632 5629 5626 5623
5736 5735 5734 5732 5729 5726 5723 5719 5716 5714 5711 5709 5707 5704 5702 5700 5696 5693 5689 5686 5683 5680 5678 5675 5673 5671 5668 5666 5663 5660 5658 5655 5652 5647 5642 5638 5635 5632 5629 5626 5622 5619 5616
5734 5733 5733 5732 5729 5726 5723 5720 5717 5714 5711 5709 5706 5703 5701 5698 5695 5691 5687 5683 5681 5678 5675 5672 5670 5668 5665 5663 5660 5657 5654 5650 5646 5641 5636 5632 5629 5626 5622 5619 5616 5613 5609
5733 5732 5732 5731 5728 5726 5723 5720 5717 5714 5711 5709 5706 5703 5700 5697 5693 5690 5686 5682 5679 5676 5673 5670 5667 5665 5662 5659 5656 5652 5649 5645 5641 5636 5631 5627 5623 5619 5616 5613 5610 5606 5603
5733 5732 5731 5730 5728 5725 5722 5719 5717 5714 5711 5708 5705 5702 5699 5695 5692 5688 5685 5681 5678 5674 5671 5668 5665 5662 5658 5655 5651 5648 5644 5641 5637 5632 5627 5622 5617 5613 5610 5606 5603 5600 5597
5735 5733 5731 5729 5727 5723 5720 5718 5716 5713 5710 5707 5704 5700 5697 5694 5690 5686 5683 5679 5675 5672 5668 5665 5661 5658 5654 5650 5646 5643 5639 5636 5632 5627 5622 5618 5613 5608 5604 5600 5597 5593 5590
5736 5733 5730 5728 5725 5722 5719 5717 5714 5712 5709 5706 5702 5699 5695 5692 5688 5684 5680 5676 5673 5669 5665 5661 5657 5653 5649 5645 5641 5637 5634 5630 5626 5622 5618 5613 5608 5604 5599 5595 5591 5588 5584
5737 5734 5730 5727 5725 5721 5718 5715 5713 5710 5707 5704 5701 5697 5694 5690 5686 5682 5678 5674 5670 5666 5661 5657 5653 5649 5644 5640 5636 5633 5629 5625 5621 5617 5613 5608 5604 5599 5595 5590 5586 5582 5578
5737 5734 5730 5726 5723 5720 5716 5713 5710 5707 5705 5703 5700 5696 5693 5689 5685 5680 5675 5671 5667 5662 5657 5653 5649 5645 5640 5636 5632 5628 5624 5620 5617 5612 5608 5604 5600 5595 5590 5586 5581 5577 5573
5735 5732 5730 5725 5722 5719 5715 5711 5708 5705 5703 5701 5698 5695 5691 5687 5683 5678 5673 5669 5665 5660 5655 5650 5645 5640 5635 5631 5625 5620 5618 5616 5612 5608 5604 5599 5595 5591 5586 5581 5577 5572 5568
5734 5732 5730 5726 5723 5720 5717 5713 5709 5705 5701 5699 5696 5693 5690 5686 5682 5677 5672 5667 5662 5657 5652 5648 5643 5636 5631 5627 5620 5613 5608 5606 5605 5605 5600 5595 5590 5586 5581 5577 5572 5568 5563
5734 5733 5731 5728 5724 5721 5716 5710 5705 5700 5697 5694 5692 5690 5688 5685 5680 5676 5671 5666 5660 5655 5650 5645 5640 5634 5627 5622 5618 5611 5603 5599 5597 5596 5594 5590 5586 5581 5577 5573 5568 5564 5559
5734 5734 5731 5728 5724 5720 5715 5710 5705 5702 5699 5697 5694 5690 5686 5683 5679 5674 5669 5664 5659 5654 5648 5643 5638 5632 5625 5618 5613 5609 5604 5599 5592 5587 5586 5584 5581 5577 5572 5568 5564 5559 5554
5734 5732 5729 5726 5722 5719 5715 5711 5706 5702 5699 5695 5691 5687 5684 5681 5677 5673 5668 5663 5657 5652 5647 5641 5636 5630 5624 5617 5610 5604 5599 5594 5590 5582 5578 5576 5573 5571 5568 5564 5559 5554 5549
5730 5728 5726 5722 5720 5717 5713 5709 5705 5702 5697 5693 5690 5686 5682 5679 5675 5671 5666 5661 5656 5650 5645 5639 5634 5628 5621 5615 5609 5602 5596 5589 5584 5579 5574 5570 5567 5566 5563 5559 5554 5549 5544